1514437200.29,34539,5.25,71364.3,-6.35,-7.19,-7.19,0,*58
1514437201.51,34540,5.25,71358.3,-6.37,-7.23,-7.23,0,*54
1514437202.78,34541,5.25,71366.5,-6.37,-7.43,-7.31,0,*50
1514437204.05,34542,5.25,71358.5,-6.37,-7.35,-7.31,0,*52
1514437205.3,34543,5.25,71346.3,-6.37,-7.35,-7.23,0,*50
1514437206.52,34544,5.25,71366.8,-6.37,-7.23,-7.23,0,*50
1514437207.74,34545,5.25,71390.0,-6.37,-7.23,-7.23,0,*51
1514437208.96,34546,5.25,71368.3,-6.35,-7.31,-7.19,0,*5A
1514437210.18,34547,5.25,71374.5,-6.35,-7.27,-7.19,0,*5C
1514437211.38,34548,5.25,71360.5,-6.35,-7.19,-7.19,0,*5E
1514437212.63,34549,5.25,71346.3,-6.33,-7.31,-7.19,0,*53
1514437213.85,34550,5.25,71340.0,-6.37,-7.23,-7.23,0,*55
1514437215.07,34551,5.25,71334.5,-6.37,-7.23,-7.23,0,*54
1514437216.28,34552,5.25,71342.0,-6.35,-7.19,-7.19,0,*55
1514437217.5,34553,5.25,71340.0,-6.35,-7.27,-7.19,0,*59
1514437218.72,34554,5.25,71332.3,-6.37,-7.23,-7.23,0,*51
1514437219.96,34555,5.25,71332.5,-6.37,-7.31,-7.23,0,*53
1514437221.16,34556,5.25,71338.8,-6.35,-7.19,-7.15,0,*5D
1514437222.39,34557,5.25,71338.0,-6.37,-7.19,-7.19,0,*52
1514437223.61,34558,5.25,71350.3,-6.37,-7.19,-7.15,0,*51
1514437224.81,34559,5.25,71356.5,-6.35,-7.15,-7.11,0,*5A
1514437226.03,34560,5.25,71356.5,-6.37,-7.23,-7.19,0,*5F
1514437227.25,34561,5.25,71384.0,-6.37,-7.23,-7.19,0,*5E
1514437228.49,34562,5.25,71388.5,-6.37,-7.31,-7.19,0,*5E
1514437229.72,34563,5.25,71382.3,-6.35,-7.27,-7.15,0,*56
1514437230.92,34564,5.25,71368.0,-6.35,-7.19,-7.15,0,*5C
1514437232.14,34565,5.25,71368.3,-6.37,-7.23,-7.19,0,*5A
1514437233.36,34566,5.25,71358.3,-6.37,-7.23,-7.23,0,*50
1514437234.57,34567,5.25,71360.5,-6.35,-7.19,-7.11,0,*5B
1514437235.77,34568,5.25,71348.5,-6.35,-7.15,-7.11,0,*58
1514437236.99,34569,5.25,71352.8,-6.37,-7.19,-7.15,0,*53
1514437238.19,34570,5.25,71354.8,-6.35,-7.15,-7.15,0,*55
1514437239.39,34571,5.25,71362.8,-6.35,-7.15,-7.11,0,*50
1514437240.6,34572,5.25,71378.0,-6.35,-7.15,-7.11,0,*53
1514437241.8,34573,5.25,71374.3,-6.35,-7.15,-7.11,0,*52
1514437243.02,34574,5.25,71368.5,-6.37,-7.19,-7.19,0,*53
1514437244.25,34575,5.25,71374.0,-6.33,-7.15,-7.15,0,*56
1514437245.47,34576,5.25,71364.5,-6.33,-7.15,-7.15,0,*55
1514437246.67,34577,5.25,71364.3,-6.35,-7.23,-7.23,0,*52
1514437247.87,34578,5.25,71376.0,-6.35,-7.19,-7.19,0,*5D
1514437249.07,34579,5.25,71368.5,-6.35,-7.23,-7.15,0,*59
1514437250.27,34580,5.25,71384.5,-6.35,-7.15,-7.11,0,*5E
1514437251.47,34581,5.25,71400.3,-6.35,-7.15,-7.15,0,*5B
1514437252.68,34582,5.25,71384.3,-6.35,-7.15,-7.11,0,*5C
1514437253.88,34583,5.25,71364.5,-6.35,-7.15,-7.11,0,*5D
1514437255.08,34584,5.25,71362.5,-6.35,-7.15,-7.11,0,*5A
1514437256.29,34585,5.25,71386.5,-6.35,-7.11,-7.11,0,*5F
1514437257.54,34586,5.25,71374.0,-6.33,-7.15,-7.01,0,*5F
1514437258.78,34587,5.25,71380.8,-6.33,-7.15,-6.97,0,*50
1514437260.03,34588,5.25,71370.5,-6.33,-7.15,-7.01,0,*51
1514437261.23,34589,5.25,71366.5,-6.35,-7.15,-7.15,0,*53
1514437262.43,34590,5.25,71366.3,-6.35,-7.15,-7.15,0,*5B
1514437263.65,34591,5.25,71370.3,-6.35,-7.27,-7.19,0,*57
1514437264.85,34592,5.25,71344.8,-6.35,-7.19,-7.19,0,*59
1514437266.07,34593,5.25,71336.8,-6.35,-7.27,-7.19,0,*55
1514437267.29,34594,5.25,71338.3,-6.35,-7.31,-7.19,0,*55
1514437268.49,34595,5.25,71366.0,-6.35,-7.19,-7.19,0,*5E
1514437269.7,34596,5.25,71376.8,-6.35,-7.19,-7.15,0,*51
1514437270.9,34597,5.25,71396.8,-6.35,-7.19,-7.15,0,*50
1514437272.1,34598,5.25,71402.3,-6.35,-7.19,-7.11,0,*5B
1514437273.33,34599,5.25,71406.5,-6.35,-7.19,-7.01,0,*5B
1514437274.53,34600,5.25,71386.3,-6.35,-7.15,-7.11,0,*55
1514437275.74,34601,5.25,71376.5,-6.35,-7.15,-7.11,0,*54
1514437276.96,34602,5.25,71392.5,-6.33,-7.15,-7.11,0,*51
1514437278.19,34603,5.25,71404.5,-6.33,-7.15,-7.11,0,*50
1514437279.41,34604,5.25,71396.8,-6.33,-7.15,-7.15,0,*53
1514437280.64,34605,5.25,71392.3,-6.33,-7.15,-7.11,0,*56
1514437281.84,34606,5.25,71388.0,-6.31,-7.11,-7.15,0,*57
1514437283.04,34607,5.25,71392.5,-6.35,-7.19,-7.15,0,*5A
1514437284.24,34608,5.25,71380.5,-6.35,-7.19,-7.15,0,*55
1514437285.44,34609,5.25,71382.8,-6.35,-7.19,-7.15,0,*54
1514437286.64,34610,5.25,71366.3,-6.35,-7.15,-7.15,0,*50
1514437287.87,34611,5.25,71356.8,-6.33,-7.19,-7.15,0,*5B
1514437289.09,34612,5.25,71360.3,-6.35,-7.27,-7.15,0,*53
1514437290.31,34613,5.25,71358.3,-6.35,-7.27,-7.19,0,*5E
1514437291.53,34614,5.25,71334.0,-6.35,-7.27,-7.19,0,*59
1514437292.77,34615,5.25,71300.3,-6.35,-7.39,-7.27,0,*5A
1514437294.02,34616,5.25,71330.5,-6.35,-7.31,-7.31,0,*56
1514437295.24,34617,5.25,71362.8,-6.35,-7.31,-7.19,0,*5D
1514437296.46,34618,5.25,71358.3,-6.33,-7.19,-7.19,0,*5E
1514437297.69,34619,5.25,71362.3,-6.33,-7.19,-7.15,0,*53
1514437298.91,34620,5.25,71362.5,-6.35,-7.27,-7.15,0,*52
1514437300.13,34621,5.25,71344.0,-6.35,-7.27,-7.15,0,*53
1514437301.36,34622,5.25,71352.0,-6.33,-7.19,-7.15,0,*5B
1514437302.58,34623,5.25,71356.8,-6.33,-7.19,-7.15,0,*5A
1514437303.81,34624,5.25,71362.5,-6.33,-7.19,-7.15,0,*5D
1514437305.05,34625,5.25,71368.5,-6.37,-7.31,-7.19,0,*5E
1514437306.27,34626,5.25,71364.0,-6.37,-7.23,-7.23,0,*57
1514437307.5,34627,5.25,71370.5,-6.33,-7.19,-7.15,0,*5E
1514437308.7,34628,5.25,71374.0,-6.35,-7.19,-7.15,0,*57
1514437309.92,34629,5.25,71356.8,-6.37,-7.23,-7.19,0,*51
1514437311.12,34630,5.25,71372.8,-6.35,-7.19,-7.19,0,*52
1514437312.39,34631,5.25,71352.0,-6.37,-7.35,-7.31,0,*55
1514437313.61,34632,5.25,71344.0,-6.35,-7.27,-7.19,0,*5D
1514437314.83,34633,5.25,71354.5,-6.35,-7.27,-7.19,0,*5C
1514437316.05,34634,5.25,71346.3,-6.35,-7.27,-7.19,0,*5B
1514437317.27,34635,5.25,71342.5,-6.35,-7.27,-7.19,0,*5A
1514437318.52,34636,5.25,71348.3,-6.37,-7.35,-7.23,0,*51
1514437319.74,34637,5.25,71358.5,-6.35,-7.27,-7.19,0,*58
1514437320.94,34638,5.25,71362.3,-6.35,-7.19,-7.19,0,*5A
1514437322.15,34639,5.25,71354.0,-6.35,-7.19,-7.19,0,*5B
1514437323.36,34640,5.25,71356.3,-6.37,-7.23,-7.19,0,*5E
1514437324.59,34641,5.25,71362.8,-6.37,-7.19,-7.15,0,*5A
1514437325.81,34642,5.25,71368.8,-6.35,-7.27,-7.15,0,*56
1514437327.03,34643,5.25,71368.8,-6.35,-7.27,-7.19,0,*5B
1514437328.25,34644,5.25,71370.3,-6.35,-7.27,-7.19,0,*5C
1514437329.47,34645,5.25,71364.5,-6.37,-7.23,-7.23,0,*52
1514437330.68,34646,5.25,71338.3,-6.35,-7.19,-7.19,0,*53
1514437331.9,34647,5.25,71334.0,-6.35,-7.27,-7.19,0,*5F
1514437333.14,34648,5.25,71330.0,-6.35,-7.27,-7.27,0,*5D
1514437334.34,34649,5.25,71332.8,-6.35,-7.19,-7.19,0,*5C
1514437335.61,34650,5.25,71340.8,-6.37,-7.31,-7.31,0,*56
1514437336.83,34651,5.25,71338.0,-6.35,-7.27,-7.19,0,*58
1514437338.05,34652,5.25,71344.8,-6.35,-7.27,-7.19,0,*5B
1514437339.25,34653,5.25,71356.3,-6.35,-7.19,-7.19,0,*57
1514437340.48,34654,5.25,71352.3,-6.35,-7.27,-7.19,0,*5D
1514437341.72,34655,5.25,71356.5,-6.37,-7.31,-7.23,0,*50
1514437342.94,34656,5.25,71348.8,-6.35,-7.27,-7.19,0,*5F
1514437344.18,34657,5.25,71360.0,-6.35,-7.27,-7.27,0,*53
1514437345.39,34658,5.25,71366.3,-6.35,-7.19,-7.19,0,*5C
1514437346.61,34659,5.25,71364.0,-6.37,-7.23,-7.23,0,*5F
1514437347.81,34660,5.25,71352.3,-6.35,-7.19,-7.19,0,*57
1514437349.01,34661,5.25,71346.8,-6.35,-7.19,-7.15,0,*5A
1514437350.22,34662,5.25,71348.3,-6.35,-7.19,-7.15,0,*59
1514437351.44,34663,5.25,71352.5,-6.37,-7.23,-7.19,0,*5F
1514437352.68,34664,5.25,71356.8,-6.37,-7.31,-7.23,0,*52
1514437353.88,34665,5.25,71370.0,-6.35,-7.19,-7.19,0,*52
1514437355.13,34666,5.25,71358.8,-6.35,-7.27,-7.27,0,*51
1514437356.37,34667,5.25,71346.8,-6.35,-7.31,-7.27,0,*57
1514437357.64,34668,5.25,71358.3,-6.37,-7.43,-7.31,0,*58
1514437358.88,34669,5.25,71374.8,-6.35,-7.39,-7.27,0,*51
1514437360.1,34670,5.25,71390.8,-6.35,-7.31,-7.19,0,*5C
1514437361.32,34671,5.25,71374.8,-6.35,-7.27,-7.19,0,*5A
1514437362.55,34672,5.25,71358.5,-6.35,-7.27,-7.19,0,*59
1514437363.77,34673,5.25,71346.0,-6.35,-7.27,-7.19,0,*58
1514437365.01,34674,5.25,71348.0,-6.37,-7.31,-7.23,0,*53
1514437366.21,34675,5.25,71342.0,-6.35,-7.19,-7.15,0,*5F
1514437367.43,34676,5.25,71362.0,-6.37,-7.23,-7.19,0,*5B
1514437368.63,34677,5.25,71364.8,-6.35,-7.19,-7.15,0,*5D
1514437369.84,34678,5.25,71386.3,-6.35,-7.19,-7.15,0,*52
1514437371.06,34679,5.25,71354.0,-6.37,-7.19,-7.19,0,*5D
1514437372.27,34680,5.25,71360.0,-6.35,-7.19,-7.11,0,*51
1514437373.47,34681,5.25,71386.8,-6.35,-7.19,-7.11,0,*50
1514437374.69,34682,5.25,71390.3,-6.37,-7.19,-7.15,0,*55
1514437375.9,34683,5.25,71396.8,-6.35,-7.15,-7.11,0,*5E
1514437377.12,34684,5.25,71400.8,-6.35,-7.15,-7.01,0,*58
1514437378.32,34685,5.25,71410.0,-6.35,-7.15,-7.15,0,*5C
1514437379.52,34686,5.25,71392.3,-6.35,-7.11,-7.15,0,*5B
1514437380.73,34687,5.25,71394.5,-6.35,-7.15,-7.11,0,*5A
1514437381.97,34688,5.25,71394.5,-6.33,-7.15,-7.01,0,*52
1514437383.2,34689,5.25,71366.8,-6.33,-7.15,-7.11,0,*52
1514437384.43,34690,5.25,71374.5,-6.33,-7.11,-7.11,0,*5E
1514437385.66,34691,5.25,71396.0,-6.33,-7.11,-7.11,0,*5F
1514437386.88,34692,5.25,71382.5,-6.33,-7.15,-7.11,0,*58
1514437388.13,34693,5.25,71370.5,-6.33,-7.11,-7.01,0,*5C
1514437389.4,34694,5.25,71386.3,-6.33,-7.01,-7.01,0,*5A
1514437390.64,34695,5.25,71396.5,-6.31,-7.05,-6.97,0,*53
1514437391.89,34696,5.25,71376.3,-6.33,-7.15,-7.01,0,*5D
1514437393.11,34697,5.25,71360.8,-6.33,-7.15,-7.11,0,*5D
1514437394.34,34698,5.25,71350.3,-6.33,-7.15,-7.11,0,*52
1514437395.56,34699,5.25,71340.5,-6.33,-7.15,-7.11,0,*53
1514437396.79,34700,5.25,71344.3,-6.33,-7.11,-7.11,0,*56
1514437398.04,34701,5.25,71358.0,-6.33,-7.11,-6.97,0,*58
1514437399.27,34702,5.25,71358.0,-6.33,-7.11,-7.11,0,*54
1514437400.5,34703,5.25,71374.0,-6.33,-7.15,-7.11,0,*51
1514437401.72,34704,5.25,71350.0,-6.31,-7.11,-6.97,0,*5F
1514437402.95,34705,5.25,71346.0,-6.33,-7.15,-7.11,0,*57
1514437404.17,34706,5.25,71352.0,-6.31,-7.15,-6.97,0,*59
1514437405.41,34707,5.25,71360.5,-6.33,-7.11,-6.97,0,*5E
1514437406.64,34708,5.25,71350.8,-6.33,-7.15,-7.15,0,*5E
1514437407.87,34709,5.25,71336.3,-6.33,-7.11,-7.11,0,*5F
1514437409.1,34710,5.25,71340.0,-6.33,-7.11,-7.11,0,*57
1514437410.32,34711,5.25,71338.0,-6.33,-7.15,-7.11,0,*52
1514437411.55,34712,5.25,71370.8,-6.33,-7.15,-7.11,0,*51
1514437412.77,34713,5.25,71358.0,-6.33,-7.15,-7.15,0,*54
1514437414.0,34714,5.25,71352.8,-6.33,-7.15,-7.11,0,*57
1514437415.23,34715,5.25,71368.3,-6.31,-7.05,-7.05,0,*50
1514437416.47,34716,5.25,71366.8,-6.31,-7.05,-7.05,0,*53
1514437417.69,34717,5.25,71362.0,-6.33,-7.15,-7.11,0,*54
1514437418.92,34718,5.25,71388.3,-6.33,-7.19,-7.15,0,*53
1514437420.16,34719,5.25,71384.0,-6.33,-7.27,-7.15,0,*5F
1514437421.41,34720,5.25,71368.5,-6.33,-7.27,-7.19,0,*59
1514437422.66,34721,5.25,71366.0,-6.33,-7.19,-7.27,0,*58
1514437423.93,34722,5.25,71354.3,-6.33,-7.31,-7.27,0,*51
1514437425.12,34723,5.25,71340.8,-6.31,-7.23,-7.23,0,*55
1514437426.34,34724,5.25,71342.5,-6.31,-7.27,-7.23,0,*56
1514437427.61,34725,5.25,71338.0,-6.33,-7.39,-7.31,0,*59
1514437428.88,34726,5.25,71346.0,-6.33,-7.27,-7.27,0,*52
1514437430.1,34727,5.25,71352.3,-6.33,-7.19,-7.19,0,*53
1514437431.32,34728,5.25,71348.8,-6.31,-7.27,-7.23,0,*5A
1514437432.52,34729,5.25,71332.3,-6.31,-7.23,-7.23,0,*5F
1514437433.76,34730,5.25,71316.8,-6.33,-7.27,-7.19,0,*58
1514437435.03,34731,5.25,71334.0,-6.33,-7.27,-7.27,0,*54
1514437436.26,34732,5.25,71330.0,-6.33,-7.19,-7.19,0,*57
1514437437.48,34733,5.25,71328.5,-6.33,-7.19,-7.19,0,*56
1514437438.71,34734,5.25,71314.3,-6.33,-7.19,-7.15,0,*5D
1514437439.94,34735,5.25,71320.0,-6.33,-7.11,-7.11,0,*50
1514437441.17,34736,5.25,71328.3,-6.33,-7.15,-7.11,0,*57
1514437442.41,34737,5.25,71336.5,-6.33,-7.11,-7.01,0,*53
1514437443.63,34738,5.25,71340.0,-6.31,-7.15,-7.01,0,*5A
1514437444.86,34739,5.25,71344.5,-6.33,-7.15,-7.11,0,*58
1514437446.08,34740,5.25,71342.0,-6.31,-7.11,-7.05,0,*55
1514437447.3,34741,5.25,71342.8,-6.33,-7.15,-7.11,0,*57
1514437448.52,34742,5.25,71348.8,-6.31,-7.11,-7.05,0,*57
1514437449.73,34743,5.25,71350.3,-6.31,-7.11,-7.05,0,*56
1514437450.94,34744,5.25,71338.0,-6.31,-7.11,-7.11,0,*54
1514437452.16,34745,5.25,71340.8,-6.33,-7.15,-7.15,0,*57
1514437453.39,34746,5.25,71344.3,-6.33,-7.15,-7.11,0,*50
1514437454.6,34747,5.25,71356.8,-6.31,-7.11,-7.05,0,*52
1514437455.82,34748,5.25,71378.8,-6.31,-7.11,-6.97,0,*57
1514437457.05,34749,5.25,71356.3,-6.33,-7.11,-7.11,0,*5B
1514437458.25,34750,5.25,71370.3,-6.31,-7.15,-7.11,0,*55
1514437459.5,34751,5.25,71356.5,-6.33,-7.27,-7.15,0,*53
1514437460.72,34752,5.25,71336.5,-6.31,-7.27,-7.11,0,*56
1514437461.92,34753,5.25,71340.8,-6.31,-7.15,-7.11,0,*56
1514437463.14,34754,5.25,71320.0,-6.33,-7.19,-7.15,0,*5B
1514437464.37,34755,5.25,71332.5,-6.33,-7.19,-7.15,0,*5A
1514437465.57,34756,5.25,71332.3,-6.31,-7.15,-7.11,0,*53
1514437466.79,34757,5.25,71340.8,-6.33,-7.19,-7.15,0,*58
1514437467.99,34758,5.25,71346.0,-6.31,-7.15,-7.11,0,*5D
1514437469.22,34759,5.25,71340.0,-6.33,-7.19,-7.11,0,*52
1514437470.44,34760,5.25,71352.0,-6.31,-7.11,-6.97,0,*5D
1514437471.67,34761,5.25,71348.3,-6.33,-7.15,-7.11,0,*55
1514437472.92,34762,5.25,71348.3,-6.33,-7.27,-7.15,0,*53
1514437474.16,34763,5.25,71358.8,-6.33,-7.53,-7.27,0,*50
1514437475.41,34764,5.25,71324.5,-6.31,-7.65,-7.35,0,*53
1514437476.6,34765,5.25,71296.8,-6.31,-7.49,-7.15,0,*5E
1514437477.79,34766,5.25,71310.8,-6.31,-7.49,-7.15,0,*5D
1514437479.03,34767,5.25,71306.8,-6.33,-7.53,-7.27,0,*54
1514437480.22,34768,5.25,71312.8,-6.31,-7.49,-7.15,0,*53
1514437481.5,34769,5.25,71292.8,-6.33,-7.77,-7.43,0,*5E
1514437482.74,34770,5.25,71338.3,-6.33,-7.69,-7.53,0,*58
1514437483.98,34771,5.25,71348.3,-6.31,-7.61,-7.39,0,*5F
1514437485.2,34772,5.25,71342.3,-6.31,-7.87,-7.65,0,*5D
1514437486.44,34773,5.25,71340.8,-6.33,-7.77,-7.53,0,*54
1514437487.66,34774,5.25,71344.0,-6.31,-8.45,-7.91,0,*51
1514437488.88,34775,5.25,71350.0,-6.31,-8.17,-7.77,0,*5F
1514437490.12,34776,5.25,71346.8,-6.31,-8.03,-7.73,0,*5D
1514437491.32,34777,5.25,71346.8,-6.31,-8.29,-7.87,0,*5F
1514437492.53,34778,5.25,71336.5,-6.31,-8.33,-7.91,0,*5C
1514437493.72,34779,5.25,71334.5,-6.31,-8.29,-7.87,0,*51
1514437494.92,34780,5.25,71336.5,-6.31,-8.41,-7.87,0,*59
1514437496.14,34781,5.25,71340.5,-6.31,-8.29,-7.91,0,*51
1514437497.34,34782,5.25,71348.8,-6.31,-8.17,-7.87,0,*58
1514437498.61,34783,5.25,71352.5,-6.33,-8.07,-7.77,0,*55
1514437499.83,34784,5.25,71342.0,-6.31,-8.41,-7.91,0,*5A
1514437501.07,34785,5.25,71350.0,-6.33,-8.45,-8.03,0,*59
1514437502.34,34786,5.25,71368.5,-6.33,-8.11,-7.91,0,*5F
1514437503.57,34787,5.25,71366.8,-6.31,-8.07,-7.87,0,*5C
1514437504.79,34788,5.25,71358.3,-6.31,-8.07,-7.87,0,*53
1514437506.04,34789,5.25,71354.5,-6.31,-8.03,-7.65,0,*5A
1514437507.28,34790,5.25,71352.3,-6.31,-7.95,-7.61,0,*56
1514437508.53,34791,5.25,71364.8,-6.31,-7.73,-7.39,0,*52
1514437509.75,34792,5.25,71376.8,-6.31,-7.49,-7.35,0,*54
1514437510.99,34793,5.25,71364.5,-6.31,-7.35,-7.35,0,*5E
1514437512.26,34794,5.25,71326.3,-6.33,-7.35,-7.27,0,*58
1514437513.48,34795,5.25,71348.3,-6.31,-7.39,-7.23,0,*53
1514437514.69,34796,5.25,71358.0,-6.31,-7.49,-7.27,0,*53
1514437515.93,34797,5.25,71332.0,-6.33,-7.65,-7.53,0,*5D
1514437517.18,34798,5.25,71340.3,-6.31,-7.61,-7.39,0,*58
1514437518.43,34799,5.25,71346.5,-6.31,-7.65,-7.35,0,*51
1514437519.67,34800,5.25,71338.8,-6.31,-7.73,-7.35,0,*59
1514437520.95,34801,5.25,71328.8,-6.33,-7.77,-7.43,0,*5F
1514437522.19,34802,5.25,71332.3,-6.31,-7.65,-7.35,0,*5C
1514437523.44,34803,5.25,71338.3,-6.31,-7.61,-7.27,0,*5A
1514437524.66,34804,5.25,71342.3,-6.31,-7.53,-7.35,0,*5F
1514437525.88,34805,5.25,71334.8,-6.31,-7.53,-7.35,0,*5E
1514437527.11,34806,5.25,71340.0,-6.31,-7.39,-7.27,0,*52
1514437528.35,34807,5.25,71344.8,-6.31,-7.39,-7.27,0,*53
1514437529.61,34808,5.25,71346.0,-6.29,-7.39,-7.27,0,*55
1514437530.86,34809,5.25,71346.8,-6.29,-7.35,-7.23,0,*5C
1514437532.1,34810,5.25,71348.5,-6.29,-7.27,-7.23,0,*57
1514437533.34,34811,5.25,71352.0,-6.29,-7.27,-7.15,0,*53
1514437534.54,34812,5.25,71348.0,-6.31,-7.23,-7.15,0,*5D
1514437535.78,34813,5.25,71344.3,-6.33,-7.31,-7.19,0,*51
1514437537.0,34814,5.25,71346.8,-6.31,-7.35,-7.15,0,*5C
1514437538.27,34815,5.25,71336.5,-6.33,-7.43,-7.31,0,*58
1514437539.49,34816,5.25,71346.5,-6.31,-7.27,-7.23,0,*58
1514437540.71,34817,5.25,71348.3,-6.31,-7.27,-7.23,0,*59
1514437541.93,34818,5.25,71350.8,-6.31,-7.27,-7.23,0,*56
1514437543.15,34819,5.25,71336.0,-6.31,-7.27,-7.23,0,*57
1514437544.37,34820,5.25,71356.8,-6.31,-7.27,-7.15,0,*58
1514437545.59,34821,5.25,71354.5,-6.31,-7.27,-7.23,0,*5C
1514437546.81,34822,5.25,71346.5,-6.31,-7.27,-7.15,0,*5A
1514437548.05,34823,5.25,71352.5,-6.29,-7.35,-7.15,0,*51
1514437549.27,34824,5.25,71366.5,-6.29,-7.23,-7.15,0,*51
1514437550.47,34825,5.25,71366.5,-6.31,-7.23,-7.15,0,*59
1514437551.67,34826,5.25,71358.8,-6.31,-7.23,-7.23,0,*5F
1514437552.89,34827,5.25,71364.0,-6.29,-7.15,-7.15,0,*57
1514437554.09,34828,5.25,71370.8,-6.25,-7.15,-7.15,0,*54
1514437555.31,34829,5.25,71366.5,-6.31,-7.27,-7.15,0,*51
1514437556.55,34830,5.25,71372.0,-6.29,-7.49,-7.27,0,*59
1514437557.82,34831,5.25,71366.8,-6.29,-7.61,-7.39,0,*5D
1514437559.09,34832,5.25,71350.8,-6.29,-7.73,-7.39,0,*5D
1514437560.33,34833,5.25,71344.0,-6.29,-7.53,-7.27,0,*51
1514437561.56,34834,5.25,71342.3,-6.29,-7.39,-7.15,0,*5B
1514437562.81,34835,5.25,71352.5,-6.29,-7.35,-7.23,0,*53
1514437564.03,34836,5.25,71338.8,-6.29,-7.49,-7.23,0,*5B
1514437565.27,34837,5.25,71334.0,-6.29,-7.35,-7.15,0,*54
1514437566.51,34838,5.25,71330.3,-6.29,-7.15,-7.05,0,*58
1514437567.75,34839,5.25,71334.5,-6.29,-7.11,-7.05,0,*5D
1514437569.01,34840,5.25,71332.5,-6.29,-7.05,-6.97,0,*5C
1514437570.23,34841,5.25,71334.3,-6.25,-7.11,-7.05,0,*5E
1514437571.47,34842,5.25,71328.0,-6.29,-7.11,-7.05,0,*51
1514437572.72,34843,5.25,71332.5,-6.25,-7.05,-7.01,0,*5D
1514437573.95,34844,5.25,71334.8,-6.29,-7.11,-7.11,0,*52
1514437575.19,34845,5.25,71336.3,-6.29,-7.11,-7.05,0,*56
1514437576.4,34846,5.25,71338.8,-6.25,-7.15,-7.11,0,*58
1514437577.63,34847,5.25,71340.3,-6.29,-7.15,-7.05,0,*50
1514437578.85,34848,5.25,71350.3,-6.29,-7.15,-7.11,0,*5A
1514437580.07,34849,5.25,71360.0,-6.29,-7.23,-7.15,0,*5A
1514437581.32,34850,5.25,71330.8,-6.29,-7.27,-7.15,0,*56
1514437582.56,34851,5.25,71334.0,-6.29,-7.27,-7.15,0,*57
1514437583.76,34852,5.25,71332.5,-6.25,-7.19,-7.19,0,*59
1514437584.99,34853,5.25,71340.5,-6.25,-7.31,-7.19,0,*52
1514437586.2,34854,5.25,71340.5,-6.29,-7.49,-7.23,0,*5F
1514437587.44,34855,5.25,71342.0,-6.29,-7.49,-7.35,0,*59
1514437588.67,34856,5.25,71334.8,-6.25,-7.31,-7.23,0,*5E
1514437589.9,34857,5.25,71332.0,-6.25,-7.35,-7.23,0,*5B
1514437591.13,34858,5.25,71330.0,-6.25,-7.35,-7.23,0,*54
1514437592.37,34859,5.25,71334.5,-6.29,-7.35,-7.23,0,*59
1514437593.61,34860,5.25,71328.8,-6.29,-7.27,-7.15,0,*55
1514437594.82,34861,5.25,71334.5,-6.25,-7.19,-7.11,0,*51
1514437596.04,34862,5.25,71332.8,-6.29,-7.23,-7.15,0,*53
1514437597.26,34863,5.25,71336.0,-6.29,-7.23,-7.15,0,*52
1514437598.48,34864,5.25,71336.0,-6.29,-7.23,-7.15,0,*55
1514437599.73,34865,5.25,71334.5,-6.29,-7.35,-7.23,0,*56
1514437600.97,34866,5.25,71352.0,-6.29,-7.35,-7.23,0,*55
1514437602.2,34867,5.25,71354.0,-6.25,-7.31,-7.19,0,*55
1514437603.45,34868,5.25,71338.5,-6.25,-7.43,-7.31,0,*55
1514437604.69,34869,5.25,71334.5,-6.29,-7.49,-7.35,0,*56
1514437605.93,34870,5.25,71330.8,-6.29,-7.65,-7.53,0,*50
1514437607.2,34871,5.25,71308.0,-6.29,-7.77,-7.73,0,*50
1514437608.46,34872,5.25,71306.5,-6.29,-8.03,-7.77,0,*5B
1514437609.73,34873,5.25,71314.0,-6.29,-7.91,-7.77,0,*5E
1514437610.97,34874,5.25,71312.5,-6.29,-7.73,-7.49,0,*58
1514437612.24,34875,5.25,71314.0,-6.29,-7.61,-7.39,0,*5D
1514437613.45,34876,5.25,71314.8,-6.29,-7.53,-7.49,0,*58
1514437614.72,34877,5.25,71326.0,-6.29,-7.35,-7.27,0,*51
1514437615.94,34878,5.25,71348.3,-6.29,-7.15,-7.15,0,*5D
1514437617.16,34879,5.25,71348.5,-6.29,-7.23,-7.15,0,*59
1514437618.38,34880,5.25,71358.8,-6.29,-7.15,-7.23,0,*5F
1514437619.58,34881,5.25,71360.0,-6.31,-7.15,-7.15,0,*52
1514437620.77,34882,5.25,71378.3,-6.31,-7.23,-7.15,0,*54
1514437622.0,34883,5.25,71394.0,-6.29,-7.15,-7.15,0,*59
1514437623.21,34884,5.25,71390.0,-6.29,-7.23,-7.15,0,*5B
1514437624.42,34885,5.25,71376.5,-6.25,-7.19,-7.11,0,*5B
1514437625.66,34886,5.25,71356.0,-6.29,-7.27,-7.15,0,*5D
1514437626.91,34887,5.25,71332.3,-6.29,-7.35,-7.23,0,*5A
1514437628.13,34888,5.25,71338.3,-6.29,-7.23,-7.15,0,*57
1514437629.38,34889,5.25,71356.0,-6.29,-7.35,-7.23,0,*54
1514437630.64,34890,5.25,71354.8,-6.29,-7.35,-7.27,0,*58
1514437631.87,34891,5.25,71348.0,-6.25,-7.31,-7.23,0,*55
1514437633.1,34892,5.25,71354.5,-6.25,-7.31,-7.11,0,*57
1514437634.34,34893,5.25,71348.5,-6.29,-7.27,-7.23,0,*5C
1514437635.58,34894,5.25,71334.8,-6.29,-7.27,-7.15,0,*5E
1514437636.85,34895,5.25,71316.8,-6.29,-7.35,-7.27,0,*5D
1514437638.07,34896,5.25,71322.3,-6.31,-7.27,-7.23,0,*50
1514437639.29,34897,5.25,71320.0,-6.29,-7.23,-7.15,0,*59
1514437640.51,34898,5.25,71334.5,-6.29,-7.15,-7.11,0,*57
1514437641.74,34899,5.25,71344.0,-6.29,-7.15,-7.11,0,*56
1514437642.96,34900,5.25,71324.8,-6.29,-7.15,-7.11,0,*57
1514437644.18,34901,5.25,71338.3,-6.29,-7.15,-7.11,0,*56
1514437645.42,34902,5.25,71340.3,-6.29,-7.15,-7.05,0,*50
1514437646.64,34903,5.25,71336.5,-6.29,-7.11,-7.11,0,*50
1514437647.9,34904,5.25,71346.5,-6.29,-7.05,-7.05,0,*57
1514437649.15,34905,5.25,71344.0,-6.29,-7.05,-7.11,0,*53
1514437650.37,34906,5.25,71328.0,-6.29,-7.11,-7.11,0,*55
1514437651.6,34907,5.25,71320.8,-6.29,-7.11,-7.11,0,*54
1514437652.83,34908,5.25,71282.3,-6.29,-7.11,-7.11,0,*5B
1514437654.05,34909,5.25,71284.0,-6.29,-7.11,-7.11,0,*5A
1514437655.29,34910,5.25,71288.8,-6.29,-7.11,-7.05,0,*57
1514437656.52,34911,5.25,71276.5,-6.29,-7.11,-7.11,0,*53
1514437657.76,34912,5.25,71280.5,-6.29,-7.11,-7.05,0,*55
1514437658.98,34913,5.25,71284.3,-6.29,-7.11,-7.11,0,*51
1514437660.21,34914,5.25,71296.5,-6.29,-7.11,-7.11,0,*56
1514437661.45,34915,5.25,71324.0,-6.29,-7.15,-7.05,0,*56
1514437662.67,34916,5.25,71326.3,-6.29,-7.15,-7.11,0,*50
1514437663.89,34917,5.25,71330.5,-6.29,-7.15,-7.11,0,*51
1514437665.12,34918,5.25,71326.3,-6.29,-7.15,-7.11,0,*5E
1514437666.34,34919,5.25,71324.0,-6.25,-7.11,-7.05,0,*52
1514437667.58,34920,5.25,71328.8,-6.29,-7.11,-7.05,0,*54
1514437668.8,34921,5.25,71328.5,-6.29,-7.23,-7.11,0,*51
1514437670.02,34922,5.25,71338.8,-6.29,-7.23,-7.15,0,*56
1514437671.26,34923,5.25,71344.3,-6.29,-7.27,-7.23,0,*56
1514437672.51,34924,5.25,71352.0,-6.29,-7.27,-7.23,0,*51
1514437673.75,34925,5.25,71334.0,-6.31,-7.35,-7.35,0,*5D
1514437674.99,34926,5.25,71320.0,-6.31,-7.39,-7.35,0,*52
1514437676.23,34927,5.25,71316.3,-6.31,-7.39,-7.27,0,*50
1514437677.47,34928,5.25,71312.0,-6.29,-7.49,-7.35,0,*52
1514437678.73,34929,5.25,71318.0,-6.29,-7.27,-7.35,0,*5B
1514437679.98,34930,5.25,71310.3,-6.31,-7.35,-7.35,0,*59
1514437681.22,34931,5.25,71310.3,-6.31,-7.27,-7.27,0,*58
1514437682.46,34932,5.25,71314.8,-6.31,-7.35,-7.27,0,*58
1514437683.71,34933,5.25,71324.0,-6.31,-7.35,-7.27,0,*59
1514437684.94,34934,5.25,71334.0,-6.31,-7.39,-7.27,0,*52
1514437686.22,34935,5.25,71316.8,-6.33,-7.43,-7.39,0,*53
1514437687.43,34936,5.25,71296.0,-6.31,-7.49,-7.35,0,*54
1514437688.71,34937,5.25,71314.0,-6.33,-7.57,-7.31,0,*5C
1514437689.98,34938,5.25,71312.8,-6.33,-7.57,-7.31,0,*53
1514437691.22,34939,5.25,71330.3,-6.31,-7.39,-7.35,0,*5C
1514437692.47,34940,5.25,71322.0,-6.31,-7.61,-7.39,0,*53
1514437693.68,34941,5.25,71316.0,-6.31,-7.49,-7.35,0,*54
1514437694.9,34942,5.25,71318.8,-6.31,-7.53,-7.35,0,*5C
1514437696.14,34943,5.25,71328.8,-6.31,-7.39,-7.35,0,*51
1514437697.38,34944,5.25,71322.3,-6.31,-7.39,-7.27,0,*55
1514437698.6,34945,5.25,71310.8,-6.31,-7.35,-7.23,0,*5C
1514437699.86,34946,5.25,71306.8,-6.33,-7.39,-7.27,0,*55
1514437701.06,34947,5.25,71314.5,-6.31,-7.23,-7.23,0,*59
1514437702.26,34948,5.25,71306.5,-6.31,-7.15,-7.15,0,*56
1514437703.45,34949,5.25,71304.8,-6.31,-7.15,-7.15,0,*57
1514437704.65,34950,5.25,71306.3,-6.31,-7.15,-7.15,0,*5F
1514437705.85,34951,5.25,71328.8,-6.31,-7.15,-7.15,0,*5E
1514437707.04,34952,5.25,71306.0,-6.31,-7.15,-7.15,0,*5D
1514437708.27,34953,5.25,71322.8,-6.33,-7.19,-7.19,0,*5E
1514437709.5,34954,5.25,71330.8,-6.33,-7.19,-7.19,0,*59
1514437710.69,34955,5.25,71342.3,-6.31,-7.15,-7.11,0,*5E
1514437711.91,34956,5.25,71338.3,-6.31,-7.15,-7.05,0,*58
1514437713.1,34957,5.31,71318.3,-6.31,-7.23,-7.15,0,*5D
1514437714.3,34958,5.25,71320.0,-6.31,-7.23,-7.15,0,*52
1514437715.5,34959,5.25,71304.0,-6.31,-7.15,-7.15,0,*56